{"data":{"norad_id":66879,"intl_designator":"2025-283B","name":"STARLINK-35749","alt_names":[],"object_type":"PAYLOAD","status":"ACTIVE","operator":null,"country":"US","launch_date":"2025-12-04","launch_site_code":"AFWTR","launch_vehicle":null,"mission":null,"orbit_class":"UNKNOWN","rcs_meters":null,"size_class":null,"mass_kg":null,"dimensions":null,"purposes":["comms"],"wikipedia_slug":null,"has_3d_model":false,"image_url":null,"decayed_at":null,"tle_current":{"epoch":"2026-05-24T22:52:10.249824Z","epoch_age_seconds":72961,"freshness":"FRESH","line1":"1 66879U 25283B   26144.95289641  .00019957  00000+0  68384-3 0  9999","line2":"2 66879  53.1601  29.7022 0001017  80.3749 279.7366 15.30213698 27520","mean_motion":15.30213698,"eccentricity":0.0001017,"inclination_deg":53.1601,"raan_deg":29.7022,"arg_perigee_deg":80.3749,"mean_anomaly_deg":279.7366,"bstar":0.00068384,"rev_number":2752,"period_min":94.104503304479,"perigee_km":474.47718821952,"apogee_km":475.87115171149,"semimajor_km":6853.3111699655,"source":"CELESTRAK","updated_at":"2026-05-25T13:38:21.377974Z"}}}